• Em Portugal
  • Lista de países
  • Para 7 dias
  • Temperatura da água
  • Mapas de satélite
  • Mapa do tempo
  • Widgets de tempo
  • user-avatar
    Iniciar Sessão

    Previsão horária em Kielmy

    Hoje, 18 Agosto, Sábado

    Tempo Temperatura Precipitação Vento Pressão Humidade
    00:00 +19°C° 0 mm 2 m/s 756 mmHg 78%
    01:00 +19°C° 0 mm 2 m/s 756 mmHg 79%
    02:00 +19°C° 0 mm 2 m/s 756 mmHg 80%
    03:00 +19°C° 0 mm 2 m/s 756 mmHg 81%
    04:00 +18°C° 0 mm 2 m/s 757 mmHg 82%
    05:00 +19°C° 0 mm 2 m/s 757 mmHg 80%
    06:00 +20°C° 0 mm 2 m/s 757 mmHg 77%
    07:00 +21°C° 0 mm 2 m/s 757 mmHg 75%
    08:00 +24°C° 0,3 mm 2 m/s 757 mmHg 71%
    09:00 +25°C° 0,3 mm 2 m/s 758 mmHg 67%
    10:00 +26°C° 0,3 mm 2 m/s 758 mmHg 63%
    11:00 +27°C° 1,1 mm 2 m/s 758 mmHg 62%
    12:00 +27°C° 1,1 mm 2 m/s 758 mmHg 61%
    13:00 +28°C° 1,1 mm 3 m/s 757 mmHg 59%
    14:00 +27°C° 0,2 mm 3 m/s 758 mmHg 61%
    15:00 +27°C° 0,2 mm 3 m/s 758 mmHg 63%
    16:00 +26°C° 0,2 mm 3 m/s 758 mmHg 64%
    17:00 +25°C° 0,3 mm 3 m/s 758 mmHg 70%
    18:00 +22°C° 0,3 mm 3 m/s 758 mmHg 77%
    19:00 +20°C° 0,3 mm 3 m/s 758 mmHg 83%
    20:00 +19°C° 0,1 mm 2 m/s 758 mmHg 83%
    21:00 +18°C° 0,1 mm 2 m/s 759 mmHg 83%
    22:00 +17°C° 0,1 mm 2 m/s 759 mmHg 84%
    23:00 +17°C° 0 mm 2 m/s 759 mmHg 83%

    Amanhã, 19 Agosto, Domingo

    Tempo Temperatura Precipitação Vento Pressão Humidade
    00:00 +18°C° 0 mm 1 m/s 759 mmHg 83%
    01:00 +16°C° 0 mm 1 m/s 759 mmHg 83%
    02:00 +16°C° 0 mm 1 m/s 759 mmHg 83%
    03:00 +16°C° 0 mm 1 m/s 759 mmHg 83%
    04:00 +15°C° 0 mm 1 m/s 759 mmHg 83%
    05:00 +17°C° 0 mm 2 m/s 759 mmHg 79%
    06:00 +18°C° 0 mm 2 m/s 759 mmHg 75%
    07:00 +19°C° 0 mm 2 m/s 759 mmHg 71%
    08:00 +21°C° 0 mm 3 m/s 759 mmHg 64%
    09:00 +24°C° 0 mm 3 m/s 759 mmHg 57%
    10:00 +25°C° 0 mm 3 m/s 759 mmHg 49%
    11:00 +26°C° 0 mm 3 m/s 759 mmHg 48%
    12:00 +27°C° 0 mm 3 m/s 759 mmHg 46%
    13:00 +27°C° 0 mm 3 m/s 759 mmHg 45%
    14:00 +27°C° 0 mm 3 m/s 758 mmHg 46%
    15:00 +27°C° 0 mm 3 m/s 758 mmHg 47%
    16:00 +27°C° 0 mm 3 m/s 758 mmHg 48%
    17:00 +26°C° 0 mm 2 m/s 758 mmHg 56%
    18:00 +24°C° 0 mm 2 m/s 758 mmHg 64%
    19:00 +21°C° 0 mm 2 m/s 758 mmHg 72%
    20:00 +20°C° 0 mm 2 m/s 758 mmHg 76%
    21:00 +19°C° 0 mm 2 m/s 758 mmHg 80%
    22:00 +19°C° 0 mm 1 m/s 758 mmHg 84%
    23:00 +19°C° 0 mm 1 m/s 758 mmHg 85%

    Depois de amanhã, 20 Agosto, Segunda-feira

    Tempo Temperatura Precipitação Vento Pressão Humidade
    00:00 +19°C° 0 mm 1 m/s 758 mmHg 85%
    01:00 +19°C° 0 mm 1 m/s 757 mmHg 85%
    02:00 +19°C° 0 mm 1 m/s 757 mmHg 84%
    03:00 +19°C° 0 mm 1 m/s 757 mmHg 83%
    04:00 +19°C° 0 mm 1 m/s 757 mmHg 81%
    05:00 +20°C° 0 mm 1 m/s 757 mmHg 78%
    06:00 +21°C° 0 mm 1 m/s 757 mmHg 74%
    07:00 +21°C° 0 mm 2 m/s 757 mmHg 71%
    08:00 +24°C° 0 mm 2 m/s 757 mmHg 65%
    09:00 +25°C° 0 mm 2 m/s 757 mmHg 59%
    10:00 +27°C° 0 mm 2 m/s 756 mmHg 54%
    11:00 +28°C° 0 mm 2 m/s 756 mmHg 51%
    12:00 +28°C° 0 mm 3 m/s 756 mmHg 48%
    13:00 +29°C° 0 mm 3 m/s 756 mmHg 46%
    14:00 +29°C° 0 mm 3 m/s 755 mmHg 46%
    15:00 +29°C° 0 mm 3 m/s 755 mmHg 47%
    16:00 +29°C° 0 mm 2 m/s 755 mmHg 48%
    17:00 +27°C° 0 mm 2 m/s 755 mmHg 53%
    18:00 +26°C° 0 mm 2 m/s 754 mmHg 59%
    19:00 +24°C° 0 mm 2 m/s 754 mmHg 65%
    20:00 +23°C° 0,1 mm 2 m/s 754 mmHg 71%
    21:00 +22°C° 0,1 mm 1 m/s 754 mmHg 76%
    22:00 +21°C° 0,1 mm 1 m/s 754 mmHg 82%
    23:00 +21°C° 0,1 mm 1 m/s 754 mmHg 82%

    21 Agosto, Terça-feira

    Tempo Temperatura Precipitação Vento Pressão Humidade
    00:00 +21°C° 0,1 mm 1 m/s 754 mmHg 83%
    01:00 +21°C° 0,1 mm 1 m/s 754 mmHg 83%
    02:00 +19°C° 0,2 mm 2 m/s 754 mmHg 84%
    03:00 +19°C° 0,2 mm 2 m/s 754 mmHg 85%
    04:00 +19°C° 0,2 mm 2 m/s 753 mmHg 86%
    05:00 +20°C° 0 mm 3 m/s 754 mmHg 84%
    06:00 +20°C° 0 mm 4 m/s 754 mmHg 82%
    07:00 +20°C° 0 mm 4 m/s 754 mmHg 81%
    08:00 +21°C° 0 mm 5 m/s 754 mmHg 76%
    09:00 +22°C° 0 mm 5 m/s 755 mmHg 71%
    10:00 +23°C° 0 mm 5 m/s 755 mmHg 66%
    11:00 +25°C° 0 mm 5 m/s 755 mmHg 61%
    12:00 +25°C° 0 mm 5 m/s 755 mmHg 57%
    13:00 +26°C° 0 mm 5 m/s 755 mmHg 52%
    14:00 +26°C° 0 mm 5 m/s 755 mmHg 51%
    15:00 +25°C° 0 mm 5 m/s 755 mmHg 51%
    16:00 +25°C° 0 mm 5 m/s 755 mmHg 50%
    17:00 +23°C° 0 mm 4 m/s 755 mmHg 57%
    18:00 +21°C° 0 mm 3 m/s 755 mmHg 64%
    19:00 +19°C° 0 mm 2 m/s 756 mmHg 71%
    20:00 +19°C° 0 mm 2 m/s 756 mmHg 73%
    21:00 +18°C° 0 mm 2 m/s 756 mmHg 76%
    22:00 +19°C° 0 mm 1 m/s 756 mmHg 78%
    23:00 +18°C° 0 mm 2 m/s 756 mmHg 78%

    22 Agosto, Quarta-feira

    Tempo Temperatura Precipitação Vento Pressão Humidade
    00:00 +18°C° 0 mm 2 m/s 756 mmHg 78%
    01:00 +17°C° 0 mm 3 m/s 756 mmHg 79%
    02:00 +17°C° 0 mm 3 m/s 756 mmHg 79%
    03:00 +17°C° 0 mm 3 m/s 756 mmHg 80%
    04:00 +17°C° 0 mm 3 m/s 756 mmHg 80%
    05:00 +18°C° 0 mm 3 m/s 756 mmHg 78%
    06:00 +19°C° 0 mm 3 m/s 756 mmHg 77%
    07:00 +19°C° 0 mm 3 m/s 756 mmHg 75%
    08:00 +20°C° 0,1 mm 4 m/s 756 mmHg 72%
    09:00 +22°C° 0,1 mm 4 m/s 756 mmHg 69%
    10:00 +23°C° 0,1 mm 4 m/s 755 mmHg 67%
    11:00 +25°C° 0,1 mm 5 m/s 755 mmHg 63%
    12:00 +25°C° 0,1 mm 5 m/s 755 mmHg 59%
    13:00 +26°C° 0,1 mm 6 m/s 755 mmHg 55%
    14:00 +26°C° 0,1 mm 5 m/s 755 mmHg 56%
    15:00 +26°C° 0,1 mm 5 m/s 755 mmHg 57%
    16:00 +25°C° 0,1 mm 5 m/s 755 mmHg 57%
    17:00 +23°C° 0 mm 4 m/s 755 mmHg 62%
    18:00 +21°C° 0 mm 3 m/s 755 mmHg 67%
    19:00 +20°C° 0 mm 3 m/s 755 mmHg 71%
    20:00 +19°C° 0 mm 3 m/s 756 mmHg 74%
    21:00 +18°C° 0 mm 3 m/s 756 mmHg 77%
    22:00 +17°C° 0 mm 3 m/s 756 mmHg 80%
    23:00 +17°C° 0 mm 3 m/s 756 mmHg 83%

    23 Agosto, Quinta-feira

    Tempo Temperatura Precipitação Vento Pressão Humidade
    00:00 +16°C° 0 mm 3 m/s 756 mmHg 86%
    01:00 +16°C° 0 mm 3 m/s 757 mmHg 89%
    02:00 +15°C° 0 mm 2 m/s 757 mmHg 90%
    03:00 +15°C° 0 mm 2 m/s 757 mmHg 92%
    04:00 +14°C° 0 mm 2 m/s 757 mmHg 93%
    05:00 +15°C° 0 mm 2 m/s 757 mmHg 88%
    06:00 +16°C° 0 mm 2 m/s 757 mmHg 82%
    07:00 +17°C° 0 mm 3 m/s 757 mmHg 77%
    08:00 +19°C° 0 mm 3 m/s 758 mmHg 69%
    09:00 +20°C° 0 mm 3 m/s 758 mmHg 62%
    10:00 +21°C° 0 mm 3 m/s 758 mmHg 55%
    11:00 +22°C° 0 mm 3 m/s 758 mmHg 52%
    12:00 +23°C° 0 mm 2 m/s 758 mmHg 49%
    13:00 +24°C° 0 mm 2 m/s 757 mmHg 46%
    14:00 +24°C° 0 mm 2 m/s 757 mmHg 48%
    15:00 +22°C° 0 mm 3 m/s 757 mmHg 50%
    16:00 +22°C° 0 mm 3 m/s 757 mmHg 51%
    17:00 +21°C° 0 mm 3 m/s 757 mmHg 59%
    18:00 +19°C° 0 mm 3 m/s 757 mmHg 67%
    19:00 +17°C° 0 mm 3 m/s 757 mmHg 75%
    20:00 +17°C° 0 mm 3 m/s 757 mmHg 79%
    21:00 +16°C° 0 mm 2 m/s 757 mmHg 82%
    22:00 +15°C° 0 mm 2 m/s 757 mmHg 85%
    23:00 +15°C° 0 mm 2 m/s 757 mmHg 86%
    Mostrar mais